contact:dominique.lefevre@mio.osupytheas.fr, maurice.libes@osupytheas.fr, didier.mallarino@osupytheas.fr
Project:EMSO http://www.emso-fr.org/EMSO-France
Depth: 2436.0 m
Title:EMSO Ligure Ouest : Data MII capteur CSTAR
DateTime,Latitude,Longitude,Instrument_Serial,Reference_Counts,Signal_Counts,Corrected_Signal_raw_counts,Calculated_Beam_c_inverse_meters,Internal_thermistor_counts
DateTime,Latitude,Longitude,Instrument_Serial,Reference_Counts,Signal_Counts,Corrected_Signal_raw_counts,Calculated_Beam_c_inverse_meters,Internal_thermistor_counts
2021-06-20T00:01:37,42.805,6.029,CST-1368DR,5468,7623,14965,0.170,551
2021-06-20T00:04:38,42.805,6.029,CST-1368DR,5468,7623,14966,0.170,551
2021-06-20T00:07:40,42.805,6.029,CST-1368DR,5468,7623,14966,0.170,551
2021-06-20T00:10:42,42.805,6.029,CST-1368DR,5468,7623,14966,0.170,551
2021-06-20T00:13:43,42.805,6.029,CST-1368DR,5468,7623,14967,0.170,551
2021-06-20T00:16:45,42.805,6.029,CST-1368DR,5468,7623,14966,0.170,551
2021-06-20T00:19:46,42.805,6.029,CST-1368DR,5468,7623,14967,0.170,551
2021-06-20T00:22:48,42.805,6.029,CST-1368DR,5468,7623,14965,0.170,551
2021-06-20T00:25:49,42.805,6.029,CST-1368DR,5468,7623,14966,0.170,551
2021-06-20T00:28:51,42.805,6.029,CST-1368DR,5468,7623,14967,0.170,551
2021-06-20T00:31:53,42.805,6.029,CST-1368DR,5468,7623,14966,0.170,550
2021-06-20T00:34:54,42.805,6.029,CST-1368DR,5468,7622,14963,0.171,551
2021-06-20T00:37:56,42.805,6.029,CST-1368DR,5468,7623,14967,0.170,551
2021-06-20T00:40:57,42.805,6.029,CST-1368DR,5468,7623,14965,0.170,551
2021-06-20T00:43:59,42.805,6.029,CST-1368DR,5468,7622,14965,0.170,551
2021-06-20T00:47:01,42.805,6.029,CST-1368DR,5468,7623,14966,0.170,551
2021-06-20T00:50:02,42.805,6.029,CST-1368DR,5468,7622,14963,0.171,551
2021-06-20T00:53:04,42.805,6.029,CST-1368DR,5468,7623,14967,0.170,551
2021-06-20T00:56:05,42.805,6.029,CST-1368DR,5468,7617,14955,0.173,550
2021-06-20T00:59:07,42.805,6.029,CST-1368DR,5468,7623,14966,0.170,551
2021-06-20T01:02:08,42.805,6.029,CST-1368DR,5468,7623,14966,0.170,551
2021-06-20T01:05:10,42.805,6.029,CST-1368DR,5468,7623,14966,0.170,551
2021-06-20T01:08:12,42.805,6.029,CST-1368DR,5468,7623,14966,0.170,551
2021-06-20T01:11:13,42.805,6.029,CST-1368DR,5468,7623,14966,0.170,550
2021-06-20T01:14:15,42.805,6.029,CST-1368DR,5468,7622,14963,0.171,551
2021-06-20T01:17:16,42.805,6.029,CST-1368DR,5468,7623,14966,0.170,551
2021-06-20T01:20:18,42.805,6.029,CST-1368DR,5468,7622,14964,0.171,551
2021-06-20T01:23:19,42.805,6.029,CST-1368DR,5468,7623,14967,0.170,551
2021-06-20T01:26:21,42.805,6.029,CST-1368DR,5468,7623,14967,0.170,551
2021-06-20T01:29:23,42.805,6.029,CST-1368DR,5468,7623,14966,0.170,551
2021-06-20T01:32:24,42.805,6.029,CST-1368DR,5468,7623,14966,0.170,551
2021-06-20T01:35:26,42.805,6.029,CST-1368DR,5468,7623,14966,0.170,551
2021-06-20T01:38:27,42.805,6.029,CST-1368DR,5468,7623,14966,0.170,551
2021-06-20T01:41:29,42.805,6.029,CST-1368DR,5468,7624,14968,0.170,551
2021-06-20T01:44:31,42.805,6.029,CST-1368DR,5467,7623,14969,0.169,551
2021-06-20T01:47:32,42.805,6.029,CST-1368DR,5468,7623,14966,0.170,551
2021-06-20T01:50:34,42.805,6.029,CST-1368DR,5468,7622,14965,0.170,551
2021-06-20T01:53:35,42.805,6.029,CST-1368DR,5468,7623,14966,0.170,551
2021-06-20T01:56:37,42.805,6.029,CST-1368DR,5468,7623,14966,0.170,551
2021-06-20T01:59:38,42.805,6.029,CST-1368DR,5468,7624,14968,0.170,551
2021-06-20T02:02:40,42.805,6.029,CST-1368DR,5468,7623,14966,0.170,551
2021-06-20T02:05:42,42.805,6.029,CST-1368DR,5468,7623,14966,0.170,551
2021-06-20T02:08:43,42.805,6.029,CST-1368DR,5468,7622,14964,0.171,551
2021-06-20T02:11:45,42.805,6.029,CST-1368DR,5468,7624,14968,0.170,551
2021-06-20T02:14:46,42.805,6.029,CST-1368DR,5468,7624,14968,0.170,551
2021-06-20T02:17:48,42.805,6.029,CST-1368DR,5467,7622,14967,0.170,551
2021-06-20T02:20:49,42.805,6.029,CST-1368DR,5468,7623,14966,0.170,551
2021-06-20T02:23:51,42.805,6.029,CST-1368DR,5467,7621,14964,0.171,550
2021-06-20T02:26:53,42.805,6.029,CST-1368DR,5467,7623,14969,0.169,551
2021-06-20T02:29:54,42.805,6.029,CST-1368DR,5468,7623,14966,0.170,551
2021-06-20T02:32:56,42.805,6.029,CST-1368DR,5467,7624,14970,0.169,551
2021-06-20T02:35:57,42.805,6.029,CST-1368DR,5467,7622,14966,0.170,551
2021-06-20T02:38:59,42.805,6.029,CST-1368DR,5468,7624,14968,0.170,551
2021-06-20T02:42:01,42.805,6.029,CST-1368DR,5468,7623,14967,0.170,551
2021-06-20T02:45:02,42.805,6.029,CST-1368DR,5468,7623,14966,0.170,551
2021-06-20T02:48:04,42.805,6.029,CST-1368DR,5468,7623,14966,0.170,551
2021-06-20T02:51:05,42.805,6.029,CST-1368DR,5467,7621,14965,0.170,551
2021-06-20T02:54:07,42.805,6.029,CST-1368DR,5468,7623,14966,0.170,551
2021-06-20T02:57:08,42.805,6.029,CST-1368DR,5468,7623,14966,0.170,551
2021-06-20T03:00:10,42.805,6.029,CST-1368DR,5468,7624,14969,0.169,551
2021-06-20T03:03:12,42.805,6.029,CST-1368DR,5468,7623,14966,0.170,551
2021-06-20T03:06:13,42.805,6.029,CST-1368DR,5467,7624,14970,0.169,551
2021-06-20T03:09:15,42.805,6.029,CST-1368DR,5467,7623,14969,0.169,551
2021-06-20T03:12:16,42.805,6.029,CST-1368DR,5467,7623,14969,0.169,551
2021-06-20T03:15:18,42.805,6.029,CST-1368DR,5467,7623,14969,0.169,550
2021-06-20T03:18:20,42.805,6.029,CST-1368DR,5467,7624,14971,0.169,551
2021-06-20T03:21:21,42.805,6.029,CST-1368DR,5467,7624,14971,0.169,551
2021-06-20T03:24:23,42.805,6.029,CST-1368DR,5467,7624,14970,0.169,551
2021-06-20T03:27:24,42.805,6.029,CST-1368DR,5467,7619,14960,0.172,551
2021-06-20T03:30:26,42.805,6.029,CST-1368DR,5467,7622,14967,0.170,551
2021-06-20T03:33:27,42.805,6.029,CST-1368DR,5467,7622,14967,0.170,551
2021-06-20T03:36:29,42.805,6.029,CST-1368DR,5467,7623,14968,0.170,551
2021-06-20T03:39:31,42.805,6.029,CST-1368DR,5467,7621,14965,0.170,551
2021-06-20T03:42:32,42.805,6.029,CST-1368DR,5467,7623,14969,0.169,551
2021-06-20T03:45:34,42.805,6.029,CST-1368DR,5467,7623,14969,0.169,551
2021-06-20T03:48:35,42.805,6.029,CST-1368DR,5467,7623,14968,0.170,551
2021-06-20T03:51:37,42.805,6.029,CST-1368DR,5467,7623,14968,0.170,551
2021-06-20T03:54:38,42.805,6.029,CST-1368DR,5467,7622,14967,0.170,551
2021-06-20T03:57:40,42.805,6.029,CST-1368DR,5467,7624,14970,0.169,551
2021-06-20T04:00:42,42.805,6.029,CST-1368DR,5467,7623,14969,0.169,551
2021-06-20T04:03:43,42.805,6.029,CST-1368DR,5467,7623,14969,0.169,551
2021-06-20T04:06:45,42.805,6.029,CST-1368DR,5467,7623,14968,0.170,551
2021-06-20T04:09:46,42.805,6.029,CST-1368DR,5467,7624,14970,0.169,551
2021-06-20T04:12:48,42.805,6.029,CST-1368DR,5467,7622,14966,0.170,550
2021-06-20T04:15:50,42.805,6.029,CST-1368DR,5467,7623,14968,0.170,551
2021-06-20T04:18:51,42.805,6.029,CST-1368DR,5467,7622,14967,0.170,551
2021-06-20T04:21:53,42.805,6.029,CST-1368DR,5467,7624,14971,0.169,551
2021-06-20T04:24:54,42.805,6.029,CST-1368DR,5467,7623,14968,0.170,551
2021-06-20T04:27:56,42.805,6.029,CST-1368DR,5467,7623,14969,0.169,551
2021-06-20T04:30:57,42.805,6.029,CST-1368DR,5467,7623,14969,0.169,551
2021-06-20T04:33:59,42.805,6.029,CST-1368DR,5467,7623,14969,0.169,551
2021-06-20T04:37:01,42.805,6.029,CST-1368DR,5467,7621,14964,0.171,551
2021-06-20T04:40:02,42.805,6.029,CST-1368DR,5467,7623,14968,0.170,551
2021-06-20T04:43:04,42.805,6.029,CST-1368DR,5467,7623,14968,0.170,551
2021-06-20T04:46:05,42.805,6.029,CST-1368DR,5467,7623,14969,0.169,550
2021-06-20T04:49:07,42.805,6.029,CST-1368DR,5467,7623,14968,0.170,551
2021-06-20T04:52:08,42.805,6.029,CST-1368DR,5467,7623,14968,0.170,551
2021-06-20T04:55:10,42.805,6.029,CST-1368DR,5467,7623,14968,0.170,551
2021-06-20T04:58:12,42.805,6.029,CST-1368DR,5467,7623,14968,0.170,551
2021-06-20T05:01:13,42.805,6.029,CST-1368DR,5467,7621,14965,0.170,551
2021-06-20T05:04:15,42.805,6.029,CST-1368DR,5467,7623,14968,0.170,551
2021-06-20T05:07:16,42.805,6.029,CST-1368DR,5467,7623,14968,0.170,551
2021-06-20T05:10:18,42.805,6.029,CST-1368DR,5467,7623,14969,0.169,551
2021-06-20T05:13:20,42.805,6.029,CST-1368DR,5467,7622,14967,0.170,551
2021-06-20T05:16:21,42.805,6.029,CST-1368DR,5467,7622,14966,0.170,551
2021-06-20T05:19:23,42.805,6.029,CST-1368DR,5467,7622,14966,0.170,551
2021-06-20T05:22:24,42.805,6.029,CST-1368DR,5467,7623,14968,0.170,551
2021-06-20T05:25:26,42.805,6.029,CST-1368DR,5467,7622,14967,0.170,551
2021-06-20T05:28:27,42.805,6.029,CST-1368DR,5467,7623,14969,0.169,551
2021-06-20T05:31:29,42.805,6.029,CST-1368DR,5467,7623,14968,0.170,551
2021-06-20T05:34:31,42.805,6.029,CST-1368DR,5467,7622,14966,0.170,551
2021-06-20T05:37:32,42.805,6.029,CST-1368DR,5467,7623,14968,0.170,551
2021-06-20T05:40:34,42.805,6.029,CST-1368DR,5467,7623,14968,0.170,551
2021-06-20T05:43:35,42.805,6.029,CST-1368DR,5467,7623,14969,0.169,551
2021-06-20T05:46:37,42.805,6.029,CST-1368DR,5467,7623,14968,0.170,551
2021-06-20T05:49:38,42.805,6.029,CST-1368DR,5467,7623,14968,0.170,551
2021-06-20T05:52:40,42.805,6.029,CST-1368DR,5467,7623,14968,0.170,551
2021-06-20T05:55:42,42.805,6.029,CST-1368DR,5467,7623,14968,0.170,551
2021-06-20T05:58:43,42.805,6.029,CST-1368DR,5467,7623,14969,0.169,551
2021-06-20T06:01:45,42.805,6.029,CST-1368DR,5467,7623,14968,0.170,551
2021-06-20T06:04:46,42.805,6.029,CST-1368DR,5467,7622,14967,0.170,551
2021-06-20T06:07:48,42.805,6.029,CST-1368DR,5467,7623,14969,0.169,551
2021-06-20T06:10:50,42.805,6.029,CST-1368DR,5467,7622,14967,0.170,551
2021-06-20T06:13:51,42.805,6.029,CST-1368DR,5467,7622,14966,0.170,551
2021-06-20T06:16:53,42.805,6.029,CST-1368DR,5467,7622,14967,0.170,551
2021-06-20T06:19:54,42.805,6.029,CST-1368DR,5467,7621,14965,0.170,551
2021-06-20T06:22:56,42.805,6.029,CST-1368DR,5467,7623,14968,0.170,551
2021-06-20T06:25:57,42.805,6.029,CST-1368DR,5467,7623,14968,0.170,551
2021-06-20T06:28:59,42.805,6.029,CST-1368DR,5467,7623,14968,0.170,551
2021-06-20T06:32:01,42.805,6.029,CST-1368DR,5467,7623,14969,0.169,551
2021-06-20T06:35:02,42.805,6.029,CST-1368DR,5467,7623,14968,0.170,551
2021-06-20T06:38:04,42.805,6.029,CST-1368DR,5467,7623,14968,0.170,551
2021-06-20T06:41:05,42.805,6.029,CST-1368DR,5467,7623,14969,0.169,551
2021-06-20T06:44:07,42.805,6.029,CST-1368DR,5467,7622,14966,0.170,551
2021-06-20T06:47:08,42.805,6.029,CST-1368DR,5467,7622,14967,0.170,551
2021-06-20T06:50:10,42.805,6.029,CST-1368DR,5467,7623,14968,0.170,551
2021-06-20T06:53:12,42.805,6.029,CST-1368DR,5467,7623,14968,0.170,551
2021-06-20T06:56:13,42.805,6.029,CST-1368DR,5467,7623,14968,0.170,551
2021-06-20T06:59:15,42.805,6.029,CST-1368DR,5467,7623,14968,0.170,551
2021-06-20T07:02:16,42.805,6.029,CST-1368DR,5467,7623,14968,0.170,551
2021-06-20T07:05:18,42.805,6.029,CST-1368DR,5467,7623,14968,0.170,551
2021-06-20T07:08:20,42.805,6.029,CST-1368DR,5467,7623,14969,0.169,551
2021-06-20T07:11:21,42.805,6.029,CST-1368DR,5467,7623,14968,0.170,551
2021-06-20T07:14:23,42.805,6.029,CST-1368DR,5467,7623,14968,0.170,551
2021-06-20T07:17:24,42.805,6.029,CST-1368DR,5467,7623,14968,0.170,551
2021-06-20T07:20:26,42.805,6.029,CST-1368DR,5467,7621,14964,0.171,551
2021-06-20T07:23:27,42.805,6.029,CST-1368DR,5467,7621,14964,0.171,551
2021-06-20T07:26:29,42.805,6.029,CST-1368DR,5467,7623,14968,0.170,551
2021-06-20T07:29:31,42.805,6.029,CST-1368DR,5467,7623,14968,0.170,551
2021-06-20T07:32:32,42.805,6.029,CST-1368DR,5467,7623,14968,0.170,551
2021-06-20T07:35:34,42.805,6.029,CST-1368DR,5467,7623,14968,0.170,551
2021-06-20T07:38:35,42.805,6.029,CST-1368DR,5467,7617,14956,0.173,551
2021-06-20T07:41:37,42.805,6.029,CST-1368DR,5467,7623,14968,0.170,551
2021-06-20T07:44:38,42.805,6.029,CST-1368DR,5467,7622,14967,0.170,551
2021-06-20T07:47:40,42.805,6.029,CST-1368DR,5467,7622,14967,0.170,551
2021-06-20T07:50:42,42.805,6.029,CST-1368DR,5467,7623,14968,0.170,551
2021-06-20T07:53:43,42.805,6.029,CST-1368DR,5467,7623,14968,0.170,551
2021-06-20T07:56:45,42.805,6.029,CST-1368DR,5467,7623,14969,0.169,551
2021-06-20T07:59:46,42.805,6.029,CST-1368DR,5467,7622,14967,0.170,550
2021-06-20T08:02:48,42.805,6.029,CST-1368DR,5467,7623,14969,0.169,551
2021-06-20T08:05:50,42.805,6.029,CST-1368DR,5467,7623,14968,0.170,551
2021-06-20T08:08:51,42.805,6.029,CST-1368DR,5467,7623,14968,0.170,551
2021-06-20T08:11:53,42.805,6.029,CST-1368DR,5467,7623,14969,0.169,551
2021-06-20T08:14:54,42.805,6.029,CST-1368DR,5467,7622,14967,0.170,551
2021-06-20T08:17:56,42.805,6.029,CST-1368DR,5467,7622,14966,0.170,551
2021-06-20T08:20:57,42.805,6.029,CST-1368DR,5467,7623,14969,0.169,551
2021-06-20T08:23:59,42.805,6.029,CST-1368DR,5467,7623,14969,0.169,551
2021-06-20T08:27:01,42.805,6.029,CST-1368DR,5467,7622,14967,0.170,551
2021-06-20T08:30:02,42.805,6.029,CST-1368DR,5467,7623,14968,0.170,551
2021-06-20T08:33:04,42.805,6.029,CST-1368DR,5467,7623,14969,0.169,551
2021-06-20T08:36:05,42.805,6.029,CST-1368DR,5467,7622,14967,0.170,551
2021-06-20T08:39:07,42.805,6.029,CST-1368DR,5467,7623,14969,0.169,551
2021-06-20T08:42:09,42.805,6.029,CST-1368DR,5467,7622,14967,0.170,551
2021-06-20T08:45:10,42.805,6.029,CST-1368DR,5467,7622,14967,0.170,551
2021-06-20T08:48:12,42.805,6.029,CST-1368DR,5467,7622,14967,0.170,551
2021-06-20T08:51:13,42.805,6.029,CST-1368DR,5467,7623,14968,0.170,551
2021-06-20T08:54:15,42.805,6.029,CST-1368DR,5467,7622,14966,0.170,551
2021-06-20T08:57:16,42.805,6.029,CST-1368DR,5467,7621,14965,0.170,551
2021-06-20T09:00:18,42.805,6.029,CST-1368DR,5467,7622,14967,0.170,551
2021-06-20T09:03:20,42.805,6.029,CST-1368DR,5467,7623,14968,0.170,551
2021-06-20T09:06:21,42.805,6.029,CST-1368DR,5467,7622,14967,0.170,551
2021-06-20T09:09:23,42.805,6.029,CST-1368DR,5467,7622,14967,0.170,551
2021-06-20T09:12:24,42.805,6.029,CST-1368DR,5467,7622,14967,0.170,551
2021-06-20T09:15:26,42.805,6.029,CST-1368DR,5467,7622,14967,0.170,551
2021-06-20T09:18:27,42.805,6.029,CST-1368DR,5467,7622,14966,0.170,551
2021-06-20T09:21:29,42.805,6.029,CST-1368DR,5467,7623,14968,0.170,551
2021-06-20T09:24:31,42.805,6.029,CST-1368DR,5467,7622,14967,0.170,551
2021-06-20T09:27:32,42.805,6.029,CST-1368DR,5467,7614,14951,0.174,551
2021-06-20T09:30:34,42.805,6.029,CST-1368DR,5467,7622,14966,0.170,551
2021-06-20T09:33:35,42.805,6.029,CST-1368DR,5467,7622,14967,0.170,551
2021-06-20T09:36:37,42.805,6.029,CST-1368DR,5467,7622,14967,0.170,551
2021-06-20T09:39:39,42.805,6.029,CST-1368DR,5467,7622,14967,0.170,551
2021-06-20T09:42:40,42.805,6.029,CST-1368DR,5467,7623,14968,0.170,551
2021-06-20T09:45:42,42.805,6.029,CST-1368DR,5467,7622,14967,0.170,551
2021-06-20T09:48:43,42.805,6.029,CST-1368DR,5467,7622,14967,0.170,551
2021-06-20T09:51:45,42.805,6.029,CST-1368DR,5467,7620,14962,0.171,551
2021-06-20T09:54:46,42.805,6.029,CST-1368DR,5467,7622,14967,0.170,551
2021-06-20T09:57:48,42.805,6.029,CST-1368DR,5467,7622,14966,0.170,551
2021-06-20T10:00:50,42.805,6.029,CST-1368DR,5467,7622,14967,0.170,551
2021-06-20T10:03:51,42.805,6.029,CST-1368DR,5467,7620,14962,0.171,551
2021-06-20T10:06:53,42.805,6.029,CST-1368DR,5467,7622,14967,0.170,551
2021-06-20T10:09:54,42.805,6.029,CST-1368DR,5467,7622,14966,0.170,551
2021-06-20T10:12:56,42.805,6.029,CST-1368DR,5467,7622,14966,0.170,551
2021-06-20T10:15:57,42.805,6.029,CST-1368DR,5467,7622,14966,0.170,551
2021-06-20T10:18:59,42.805,6.029,CST-1368DR,5467,7622,14966,0.170,551
2021-06-20T10:22:01,42.805,6.029,CST-1368DR,5467,7622,14966,0.170,551
2021-06-20T10:25:02,42.805,6.029,CST-1368DR,5467,7621,14965,0.170,551
2021-06-20T10:28:04,42.805,6.029,CST-1368DR,5467,7622,14967,0.170,551
2021-06-20T10:31:05,42.805,6.029,CST-1368DR,5467,7622,14966,0.170,551
2021-06-20T10:34:07,42.805,6.029,CST-1368DR,5466,7621,14968,0.170,551
2021-06-20T10:37:09,42.805,6.029,CST-1368DR,5467,7621,14965,0.170,551
2021-06-20T10:40:10,42.805,6.029,CST-1368DR,5467,7621,14965,0.170,551
2021-06-20T10:43:12,42.805,6.029,CST-1368DR,5466,7621,14967,0.170,551
2021-06-20T10:46:13,42.805,6.029,CST-1368DR,5467,7621,14964,0.171,551
2021-06-20T10:49:15,42.805,6.029,CST-1368DR,5467,7622,14966,0.170,551
2021-06-20T10:52:16,42.805,6.029,CST-1368DR,5467,7621,14965,0.170,551
2021-06-20T10:55:18,42.805,6.029,CST-1368DR,5466,7621,14968,0.170,551
2021-06-20T10:58:20,42.805,6.029,CST-1368DR,5467,7621,14964,0.171,551
2021-06-20T11:01:21,42.805,6.029,CST-1368DR,5467,7622,14966,0.170,551
2021-06-20T11:04:23,42.805,6.029,CST-1368DR,5467,7622,14966,0.170,551
2021-06-20T11:07:24,42.805,6.029,CST-1368DR,5467,7621,14965,0.170,551
2021-06-20T11:10:26,42.805,6.029,CST-1368DR,5467,7621,14965,0.170,551
2021-06-20T11:13:28,42.805,6.029,CST-1368DR,5466,7621,14966,0.170,551
2021-06-20T11:16:29,42.805,6.029,CST-1368DR,5466,7621,14968,0.170,551
2021-06-20T11:19:31,42.805,6.029,CST-1368DR,5466,7621,14967,0.170,551
2021-06-20T11:22:32,42.805,6.029,CST-1368DR,5466,7622,14968,0.170,551
2021-06-20T11:25:34,42.805,6.029,CST-1368DR,5466,7621,14968,0.170,551
2021-06-20T11:28:35,42.805,6.029,CST-1368DR,5467,7622,14966,0.170,551
2021-06-20T11:31:37,42.805,6.029,CST-1368DR,5467,7622,14966,0.170,551
2021-06-20T11:34:39,42.805,6.029,CST-1368DR,5466,7621,14967,0.170,551
2021-06-20T11:37:40,42.805,6.029,CST-1368DR,5466,7621,14967,0.170,551
2021-06-20T11:40:42,42.805,6.029,CST-1368DR,5466,7621,14968,0.170,551
2021-06-20T11:43:43,42.805,6.029,CST-1368DR,5466,7622,14968,0.170,551
2021-06-20T11:46:45,42.805,6.029,CST-1368DR,5466,7621,14967,0.170,551
2021-06-20T11:49:47,42.805,6.029,CST-1368DR,5466,7621,14966,0.170,551
2021-06-20T11:52:48,42.805,6.029,CST-1368DR,5466,7621,14967,0.170,551
2021-06-20T11:55:50,42.805,6.029,CST-1368DR,5466,7621,14967,0.170,551
2021-06-20T11:58:51,42.805,6.029,CST-1368DR,5466,7620,14966,0.170,551
2021-06-20T12:01:53,42.805,6.029,CST-1368DR,5466,7621,14967,0.170,551
2021-06-20T12:04:54,42.805,6.029,CST-1368DR,5466,7621,14967,0.170,551
2021-06-20T12:07:56,42.805,6.029,CST-1368DR,5466,7621,14968,0.170,551
2021-06-20T12:10:58,42.805,6.029,CST-1368DR,5466,7620,14966,0.170,551
2021-06-20T12:13:59,42.805,6.029,CST-1368DR,5466,7620,14966,0.170,551
2021-06-20T12:17:01,42.805,6.029,CST-1368DR,5466,7621,14966,0.170,551
2021-06-20T12:20:02,42.805,6.029,CST-1368DR,5466,7619,14964,0.171,551
2021-06-20T12:23:04,42.805,6.029,CST-1368DR,5466,7619,14962,0.171,551
2021-06-20T12:26:06,42.805,6.029,CST-1368DR,5466,7620,14966,0.170,551
2021-06-20T12:29:07,42.805,6.029,CST-1368DR,5466,7620,14966,0.170,551
2021-06-20T12:32:09,42.805,6.029,CST-1368DR,5466,7614,14954,0.173,551
2021-06-20T12:35:10,42.805,6.029,CST-1368DR,5466,7619,14963,0.171,551
2021-06-20T12:38:12,42.805,6.029,CST-1368DR,5466,7619,14963,0.171,551
2021-06-20T12:41:13,42.805,6.029,CST-1368DR,5466,7616,14958,0.172,551
2021-06-20T12:44:15,42.805,6.029,CST-1368DR,5466,7620,14965,0.170,551
2021-06-20T12:47:17,42.805,6.029,CST-1368DR,5466,7619,14962,0.171,551
2021-06-20T12:50:18,42.805,6.029,CST-1368DR,5466,7618,14962,0.171,551
2021-06-20T12:53:20,42.805,6.029,CST-1368DR,5466,7618,14961,0.171,551
2021-06-20T12:56:21,42.805,6.029,CST-1368DR,5466,7619,14962,0.171,551
2021-06-20T12:59:23,42.805,6.029,CST-1368DR,5466,7619,14963,0.171,551
2021-06-20T13:02:24,42.805,6.029,CST-1368DR,5466,7618,14961,0.171,551
2021-06-20T13:05:26,42.805,6.029,CST-1368DR,5466,7618,14961,0.171,551
2021-06-20T13:08:28,42.805,6.029,CST-1368DR,5466,7619,14963,0.171,550
2021-06-20T13:11:29,42.805,6.029,CST-1368DR,5466,7619,14963,0.171,551
2021-06-20T13:14:31,42.805,6.029,CST-1368DR,5466,7619,14963,0.171,551
2021-06-20T13:17:32,42.805,6.029,CST-1368DR,5466,7618,14961,0.171,551
2021-06-20T13:20:34,42.805,6.029,CST-1368DR,5466,7619,14962,0.171,551
2021-06-20T13:23:36,42.805,6.029,CST-1368DR,5466,7618,14962,0.171,551
2021-06-20T13:26:37,42.805,6.029,CST-1368DR,5466,7619,14962,0.171,551
2021-06-20T13:29:39,42.805,6.029,CST-1368DR,5466,7617,14959,0.172,551
2021-06-20T13:32:40,42.805,6.029,CST-1368DR,5466,7619,14962,0.171,551
2021-06-20T13:35:42,42.805,6.029,CST-1368DR,5466,7618,14961,0.171,551
2021-06-20T13:38:43,42.805,6.029,CST-1368DR,5466,7619,14963,0.171,551
2021-06-20T13:41:45,42.805,6.029,CST-1368DR,5466,7619,14963,0.171,551
2021-06-20T13:44:47,42.805,6.029,CST-1368DR,5466,7618,14962,0.171,551
2021-06-20T13:47:48,42.805,6.029,CST-1368DR,5466,7618,14960,0.172,551
2021-06-20T13:50:50,42.805,6.029,CST-1368DR,5466,7617,14960,0.172,551
2021-06-20T13:53:51,42.805,6.029,CST-1368DR,5466,7617,14959,0.172,551
2021-06-20T13:56:53,42.805,6.029,CST-1368DR,5466,7618,14960,0.172,551
2021-06-20T13:59:55,42.805,6.029,CST-1368DR,5466,7619,14963,0.171,551
2021-06-20T14:02:56,42.805,6.029,CST-1368DR,5466,7617,14960,0.172,551
2021-06-20T14:05:58,42.805,6.029,CST-1368DR,5466,7618,14961,0.171,551
2021-06-20T14:08:59,42.805,6.029,CST-1368DR,5466,7617,14960,0.172,551
2021-06-20T14:12:01,42.805,6.029,CST-1368DR,5466,7618,14961,0.171,551
2021-06-20T14:15:02,42.805,6.029,CST-1368DR,5466,7618,14961,0.171,551
2021-06-20T14:18:04,42.805,6.029,CST-1368DR,5466,7618,14962,0.171,551
2021-06-20T14:21:06,42.805,6.029,CST-1368DR,5466,7619,14962,0.171,550
2021-06-20T14:24:07,42.805,6.029,CST-1368DR,5466,7617,14960,0.172,551
2021-06-20T14:27:09,42.805,6.029,CST-1368DR,5466,7616,14958,0.172,551
2021-06-20T14:30:10,42.805,6.029,CST-1368DR,5466,7616,14958,0.172,551
2021-06-20T14:33:12,42.805,6.029,CST-1368DR,5466,7619,14964,0.171,551
2021-06-20T14:36:13,42.805,6.029,CST-1368DR,5466,7619,14963,0.171,551
2021-06-20T14:39:15,42.805,6.029,CST-1368DR,5466,7618,14961,0.171,551
2021-06-20T14:42:17,42.805,6.029,CST-1368DR,5466,7619,14964,0.171,551
2021-06-20T14:45:18,42.805,6.029,CST-1368DR,5466,7618,14960,0.172,551
2021-06-20T14:48:20,42.805,6.029,CST-1368DR,5466,7620,14965,0.170,551
2021-06-20T14:51:21,42.805,6.029,CST-1368DR,5466,7620,14966,0.170,551
2021-06-20T14:54:23,42.805,6.029,CST-1368DR,5466,7620,14965,0.170,551
2021-06-20T14:57:25,42.805,6.029,CST-1368DR,5466,7620,14966,0.170,551
2021-06-20T15:00:26,42.805,6.029,CST-1368DR,5466,7620,14965,0.170,551
2021-06-20T15:03:28,42.805,6.029,CST-1368DR,5466,7620,14965,0.170,551
2021-06-20T15:06:29,42.805,6.029,CST-1368DR,5466,7620,14965,0.170,551
2021-06-20T15:09:31,42.805,6.029,CST-1368DR,5466,7619,14963,0.171,551
2021-06-20T15:12:32,42.805,6.029,CST-1368DR,5466,7620,14965,0.170,551
2021-06-20T15:15:34,42.805,6.029,CST-1368DR,5466,7619,14962,0.171,551
2021-06-20T15:18:36,42.805,6.029,CST-1368DR,5466,7619,14964,0.171,551
2021-06-20T15:21:37,42.805,6.029,CST-1368DR,5466,7620,14965,0.170,551
2021-06-20T15:24:39,42.805,6.029,CST-1368DR,5466,7620,14966,0.170,551
2021-06-20T15:27:40,42.805,6.029,CST-1368DR,5466,7620,14965,0.170,551
2021-06-20T15:30:42,42.805,6.029,CST-1368DR,5466,7620,14966,0.170,551
2021-06-20T15:33:43,42.805,6.029,CST-1368DR,5466,7621,14966,0.170,551
2021-06-20T15:36:45,42.805,6.029,CST-1368DR,5466,7620,14966,0.170,551
2021-06-20T15:39:47,42.805,6.029,CST-1368DR,5466,7619,14964,0.171,551
2021-06-20T15:42:48,42.805,6.029,CST-1368DR,5466,7619,14963,0.171,551
2021-06-20T15:45:50,42.805,6.029,CST-1368DR,5466,7619,14964,0.171,551
2021-06-20T15:48:51,42.805,6.029,CST-1368DR,5466,7621,14967,0.170,551
2021-06-20T15:51:53,42.805,6.029,CST-1368DR,5466,7621,14966,0.170,551
2021-06-20T15:54:55,42.805,6.029,CST-1368DR,5466,7620,14966,0.170,551
2021-06-20T15:57:56,42.805,6.029,CST-1368DR,5466,7612,14950,0.174,551
2021-06-20T16:00:58,42.805,6.029,CST-1368DR,5466,7619,14964,0.171,551
2021-06-20T16:03:59,42.805,6.029,CST-1368DR,5466,7621,14966,0.170,551
2021-06-20T16:07:01,42.805,6.029,CST-1368DR,5466,7621,14966,0.170,551
2021-06-20T16:10:02,42.805,6.029,CST-1368DR,5466,7619,14962,0.171,551
2021-06-20T16:13:04,42.805,6.029,CST-1368DR,5466,7620,14966,0.170,551
2021-06-20T16:16:06,42.805,6.029,CST-1368DR,5466,7619,14964,0.171,551
2021-06-20T16:19:07,42.805,6.029,CST-1368DR,5466,7620,14965,0.170,551
2021-06-20T16:22:09,42.805,6.029,CST-1368DR,5466,7620,14965,0.170,551
2021-06-20T16:25:10,42.805,6.029,CST-1368DR,5466,7619,14964,0.171,551
2021-06-20T16:28:12,42.805,6.029,CST-1368DR,5466,7621,14966,0.170,551
2021-06-20T16:31:14,42.805,6.029,CST-1368DR,5466,7621,14967,0.170,551
2021-06-20T16:34:15,42.805,6.029,CST-1368DR,5466,7620,14966,0.170,551
2021-06-20T16:37:17,42.805,6.029,CST-1368DR,5466,7620,14965,0.170,551
2021-06-20T16:40:18,42.805,6.029,CST-1368DR,5466,7620,14966,0.170,551
2021-06-20T16:43:20,42.805,6.029,CST-1368DR,5466,7618,14962,0.171,551
2021-06-20T16:46:21,42.805,6.029,CST-1368DR,5466,7619,14964,0.171,551
2021-06-20T16:49:23,42.805,6.029,CST-1368DR,5466,7621,14966,0.170,551
2021-06-20T16:52:25,42.805,6.029,CST-1368DR,5466,7621,14966,0.170,551